Skip Page Navigation
NASA JPL Caltech
NASA Logo - Jet Propulsion Laboratory + View the NASA Portal
+ Center for Near-Earth Object Studies
JPL Home Earth Solar System Stars & Galaxies Technology
JPL Solar System Dynamics
BODIES ORBITS EPHEMERIDES TOOLS PHYSICAL DATA DISCOVERY FAQ SITE MAP
JPL Small-Body Database Browser
Search: [ help ]  
541134 (2002 RP230)
Classification: Main-belt Asteroid          SPK-ID: 2541134
Ephemeris | Orbit Diagram | Orbital Elements | Mission Design | Physical Parameters | Discovery Circumstances | Close-Approach Data ]

[ show orbit diagram ]
Orbital Elements at Epoch 2459200.5 (2020-Dec-17.0) TDB
Reference: JPL 7 (heliocentric ecliptic J2000)
 Element Value Uncertainty (1-sigma)   Units 
e .1517872060002382 6.5335e-08  
a 3.078633985117662 3.6659e-08 au
q 2.611336734219273 1.9531e-07 au
i 3.005570964849141 7.2571e-06 deg
node 43.19909813426333 0.00013237 deg
peri 253.7249750562215 0.00013498 deg
M 179.7433201330395 3.0774e-05 deg
tp 2458215.387625516406
(2018-Apr-06.88762552)
0.00016397 TDB
period 1973.038300124877
5.40
3.5242e-05
9.649e-08
d
yr
n .1824597119970834 3.259e-09 deg/d
Q 3.545931236016051 4.2224e-08 au
  Orbit Determination Parameters
   # obs. used (total)      180  
   data-arc span      10302 days (28.21 yr)  
   first obs. used      1992-11-24  
   last obs. used      2021-02-07  
   planetary ephem.      DE441  
   SB-pert. ephem.      SB441-N16  
   condition code      0  
   norm. resid. RMS      .64339  
   source      ORB  
   producer      Otto Matic  
   solution date      2021-Apr-14 20:22:13  

Additional Information
 Earth MOID = 1.59557 au 
 Jupiter MOID = 1.66809 au 
 T_jup = 3.209 
[ show covariance matrix ]

Ephemeris | Orbit Diagram | Orbital Elements | Mission Design | Physical Parameters | Discovery Circumstances | Close-Approach Data ]

Physical Parameter Table
Parameter Symbol Value Units Sigma Reference Notes
absolute magnitude H 15.99   .49146 MPCxxxxx autocmod 2.8

541134 (2002 RP230)          Discovered 2002-Sep-15 by NEAT at Palomar
Reference: Last Updated: 2019-12-02

[ show close-approach data ]
Alternate Designations
 2002 RP230 = 2011 GA43 = 2014 YD33 
Ephemeris | Orbit Diagram | Orbital Elements | Mission Design | Physical Parameters | Discovery Circumstances | Close-Approach Data ]
ABOUT SSD CREDITS/AWARDS PRIVACY/COPYRIGHT GLOSSARY LINKS
FirstGov 2021-Jun-20 05:13 UT
(server date/time)  
NASA Home Page
Site Manager:   Ryan S. Park
Webmaster  Alan B. Chamberlin